AirNav   Everest Fuels
 
 775 users online  

F95 Calhoun County Airport
Blountstown, Florida, USA

GOING TO BLOUNTSTOWN?


FAA INFORMATION EFFECTIVE 10 SEPTEMBER 2020

Location

FAA Identifier: F95
Lat/Long: 30-29-13.3085N 085-06-49.6260W
30-29.221808N 085-06.827100W
30.4870301,-85.1137850
(estimated)
Elevation: 122 ft. / 37 m (estimated)
Variation: 02W (1995)
From city: 5 miles NW of BLOUNTSTOWN, FL
Time zone: UTC -5 (UTC -6 during Standard Time)
Zip code: 32421

Airport Operations

Airport use: Open to the public
Activation date: 12/1996
Control tower: no
ARTCC: JACKSONVILLE CENTER
FSS: GAINESVILLE FLIGHT SERVICE STATION
NOTAMs facility: GNV (NOTAM-D service available)
Attendance: MON-FRI 0700-1500
Wind indicator: lighted
Segmented circle: yes
Lights: ACTVT MIRL RY 18/36 AND PAPI RYS 18 & 36 - CTAF.
Beacon: white (unlighted land airport)
Operates sunset to sunrise.

Airport Communications

CTAF: 122.9
WX AWOS-AV: 119.350 (850-674-1347)

Nearby radio navigation aids

VOR radial/distance  VOR name  Freq  Var
MAIr178/18.0MARIANNA VORTAC114.0000E
SZWr262/38.5SEMINOLE VORTAC117.5002E

 
NDB name  Hdg/Dist  Freq  Var  ID
SOYYA168/23.832902WSMY ... -- -.--
LYNNE078/35.927804WPFN .--. ..-. -.

Airport Services

Fuel available: 100LL JET-A
Parking: hangars and tiedowns
Airframe service: MAJOR
Powerplant service: MAJOR
Bottled oxygen: NONE
Bulk oxygen: NONE

Runway Information

Runway 18/36

Dimensions: 3730 x 75 ft. / 1137 x 23 m
Surface: asphalt, in good condition
Weight bearing capacity: 
PCN 13 /F/A/Y/T
Runway edge lights: medium intensity
RUNWAY 18  RUNWAY 36
Latitude: 30-29.529467N30-28.914150N
Longitude: 085-06.827600W085-06.826600W
Elevation: 120.9 ft.118.1 ft.
Traffic pattern: leftleft
Runway heading: 182 magnetic, 180 true002 magnetic, 360 true
Markings: nonprecision, in good conditionnonprecision, in good condition
Visual slope indicator: 2-light PAPI on left (3.00 degrees glide path)2-light PAPI on left (3.00 degrees glide path)
Obstructions: 68 ft. trees, 1547 ft. from runway, 40 ft. left of centerline, 20:1 slope to clear
APPROACH SLOPE 20:1 TO THE DSPLCD THLD DUE TO 88 FT TREE 185 FT L OF CNTRLN AND 1600 FT FRM RY END.
15 ft. road, 425 ft. from runway, 125 ft. right of centerline, 15:1 slope to clear

Airport Ownership and Management from official FAA records

Ownership: Publicly-owned
Owner: CALHOUN COUNTY
20589 CENTRAL AVENUE EAST
BLOUNTSTOWN, FL 32424
Phone 850-674-4545
Manager: SCOTT SNYDER
16701 AGRIPARK ROAD
ALTHA, FL 32421
Phone 850-559-2410
AIRPORT PHYSICAL ADDRESS: 16701 NORTHWEST AGRIPARK ROAD, ALTHA, FL 3241 850-674-2499 FAX: 850-674-1578.

Airport Operational Statistics

Aircraft based on the field: 9
Single engine airplanes: 9
    
Aircraft operations: avg 38/week *
50% transient general aviation
50% local general aviation
* for 12-month period ending 05 March 2018

Additional Remarks

FOR CD CTC TYNDALL APCH AT 850-283-2900 OR 850-283-3353, WHEN APCH CLSD CTC JACKSONVILLE ARTCC AT 904-845-1592.

Instrument Procedures

There are no published instrument procedures at F95.

Some nearby airports with instrument procedures:

KMAI - Marianna Municipal Airport (21 nm N)
2J9 - Quincy Municipal Airport (30 nm E)
1J0 - Tri-County Airport (33 nm NW)
17J - Donalsonville Municipal Airport (33 nm N)
KPAM - Tyndall Air Force Base (35 nm SW)
 
Loc | Ops | Rwys | IFR | FBO | Links
Com | Nav | Svcs | Stats | Notes

Continental Services
AirBoss

 
Area around F95 (Calhoun County Airport)
 
Road maps at: MapQuest Bing Google
 
Aerial photo
WARNING: Photo may not be current or correct
Aerial photo of F95 (Calhoun County Airport)
Photo by Brian Christopher
Photo taken 08-Aug-2010

Do you have a better or more recent aerial photo of Calhoun County Airport that you would like to share? If so, please send us your photo.

 
Sectional chart

 
Airport distance calculator
Flying to Calhoun County Airport? Find the distance to fly.

From to F95

Sunrise and sunset
Times for 28-Sep-2020
 Local
(UTC-5)
 Zulu
(UTC)
Morning civil twilight06:1011:10
Sunrise06:3411:34
Sunset18:2823:28
Evening civil twilight18:5223:52

Current date and time
Zulu (UTC)  28-Sep-2020 12:01:19
Local (UTC-5)  28-Sep-2020 07:01:19
 
METAR
KMAI 
21nm N 
281153Z AUTO 00000KT 5SM BR OVC003 22/22 A2990 RMK AO2 SLP122 70160 T02220217 10222 20217 53010
K2J9 
30nm E 
281155Z AUTO 00000KT 2SM BR BKN003 OVC035 23/23 A2991 RMK AO2
K1J0 
33nm NW 
281158Z AUTO 00000KT 2 1/2SM BR OVC002 23/22 A2991 RMK AO2 SLP086 70119 T02280217 10228 20217 53011
K17J 
33nm N 
281135Z AUTO 00000KT 1/4SM FG OVC003 22/ A2991 RMK AO2 T0221////
KTDR 
34nm SW 
281156Z AUTO 12003KT 1/4SM FG SCT001 OVC013 23/23 A2990 RMK AO2 LTG DSNT E SLP129 60001 70003 T02320228 10234 20230 52013 $
KPAM 
34nm SW 
281156Z AUTO 09003KT 1/8SM R32/1800V2000FT FG VV000 24/23 A2989 RMK AO2 SLP125 70097 T02360229 10237 20234 53013 $
KECP 
36nm W 
281153Z 08004KT 1/2SM R16/3500V5500FT FG OVC002 23/23 A2989 RMK AO2 RAE48 SLP132 P0000 60000 70120 T02330233 10233 20233 53013
KBGE 
38nm NE 
281155Z AUTO 00000KT 1 1/4SM BR OVC005 23/22 A2991 RMK AO2 LTG DSNT E T02260225 10227 20221 70072
KTLH 
40nm E 
281153Z 00000KT 1/2SM FG BKN002 BKN030 BKN150 23/22 A2989 RMK AO2 TWR VIS 1 SLP122 60000 70089 T02280217 10239 20228 51012
TAF
KECP 
36nm W 
280520Z 2806/2906 11004KT P6SM OVC015 FM280700 11003KT 6SM BR OVC010 FM281000 11003KT 3SM RA VCTS BKN005 OVC015CB FM281800 21006KT P6SM VCTS BKN030CB FM282100 19006KT P6SM SCT250 AMD NOT SKED 2806/2809
KTLH 
40nm E 
280520Z 2806/2906 00000KT P6SM BKN012 FM280900 00000KT 5SM BR BKN004 FM281200 07003KT 2SM BR OVC004 FM281500 24005KT 4SM RA VCTS BKN030CB FM281900 VRB03KT P6SM SHRA SCT035 PROB30 2819/2824 4SM TSRA BKN035CB FM290000 18002KT P6SM SCT250 AMD NOT SKED 2806/2809
NOTAMs
Click for the latest NOTAMs
NOTAMs are issued by the DoD/FAA and will open in a separate window not controlled by AirNav.

 

 
 

FBO, Fuel Providers, and Aircraft Ground Support

  
 Business Name 
 
 Contact 
 
 Services / Description 
 
Fuel Prices
 
Comments
  
Calhoun County Airport 850-674-2499
no information available

If you are affiliated with Calhoun County Airport and would like to show here your services, contact info, web link, logo, and more, click here
100LL Jet A
SS $3.25 $2.95 
 Updated 20-Aug-2020
 
   write
SS=Self service
Update Fuel Prices
 

Would you like to see your business listed on this page?

 If your business provides an interesting product or service to pilots, flight crews, aircraft, or users of the Calhoun County Airport, you should consider listing it here.  To start the listing process, click on the button below
 
Add a business
 

Other Pages about Calhoun County Airport

Update a link
 
Copyright © AirNav, LLC. All rights reserved. Privacy Policy  Contact